Dane County Regional Truax Field Madison US
ICAO: KMSN
IATA: MSN
Category: Large
Scheduled Services: Yes

Elevation: 887 ft
TransAlt. 18000 ft.

Airport Communications:
MADISON APP:120.1
ATIS:124.65
MADISON CLNC DEL:121.62
CTAF:119.3
MADISON DEP:126.85
MADISON GND:121.9
ARNG OPS:40.8
ANG OPS:138.25
GREEN BAY RDO:122.6
MADISON TWR:119.3
UNICOM:122.95

KMSN Zoom In..

If you have problems with the map follow the link
https://www.worldairports.se/pages/airport.php?
ICAO=KMSN

Runways:

(A) RW 03 length 7200 ft width 150 ft
---- / hdg 29

(B) RW 14 length 5846 ft width 150 ft
---- / hdg 136

(C) RW 18 length 9006 ft width 150 ft
ILS 110.10 / hdg 182

(D) RW 21 length 7200 ft width 150 ft
ILS 111.55 / hdg 209

(E) RW 32 length 5846 ft width 150 ft
---- / hdg 316

(F) RW 36 length 9006 ft width 150 ft
ILS 109.90 / hdg 2

Location; KMSN
Day. 21 / Time. 07.53 Zulu
* Altimeter: 30.35
* Temperature: -03° c. -26.6°f.
* Wind from: 300° Speed 03 kn.
Dewpoint: -07° c.
Visibility: 10 Statute Miles.
Clouds: Clear (automated report).

KMSN 210753Z AUTO 30003KT 10SM CLR M03/M07 A3035 RMK AO2 SLP287 T10281067


Wind From 300°
Speed 03 kn.

 
 
jpsmedia.com for Web Design worldairports.se 2018   terms of use